TimeEST,TemperatureF,Dew PointF,Humidity,Sea Level PressureIn,VisibilityMPH,Wind Direction,Wind SpeedMPH,Gust SpeedMPH,PrecipitationIn,Events,Conditions,WindDirDegrees,DateUTC
12:14 AM,26.6,21.2,80,29.99,2.5,WNW,5.8,-,0.01,Snow,Light Snow,300,2013-03-03 05:14:00
12:24 AM,26.6,21.2,80,29.98,3.0,NW,5.8,-,0.01,Snow,Light Snow,310,2013-03-03 05:24:00
12:36 AM,26.6,21.2,80,29.98,3.0,NW,6.9,-,0.01,Snow,Light Snow,310,2013-03-03 05:36:00
12:53 AM,26.1,19.9,78,30.02,4.0,NW,8.1,-,0.01,Snow,Light Snow,310,2013-03-03 05:53:00
1:53 AM,25.0,19.9,81,30.02,6.0,WNW,5.8,-,0.00,Snow,Light Snow,300,2013-03-03 06:53:00
2:53 AM,26.1,19.0,75,30.01,10.0,WNW,6.9,-,0.00,Snow,Light Snow,290,2013-03-03 07:53:00
3:04 AM,26.6,19.4,74,29.97,7.0,WNW,8.1,-,0.00,Snow,Light Snow,290,2013-03-03 08:04:00
3:53 AM,25.0,19.0,78,30.01,6.0,WNW,8.1,-,0.00,Snow,Light Snow,290,2013-03-03 08:53:00
4:53 AM,25.0,19.0,78,30.01,9.0,WNW,6.9,-,0.00,,Overcast,290,2013-03-03 09:53:00
5:46 AM,24.8,19.4,80,29.98,7.0,WNW,5.8,-,0.00,Snow,Light Snow,290,2013-03-03 10:46:00
5:53 AM,24.1,19.0,81,30.01,5.0,NW,6.9,-,0.00,Snow,Light Snow,310,2013-03-03 10:53:00
6:18 AM,24.8,17.6,74,29.98,7.0,NW,9.2,-,0.00,Snow,Light Snow,320,2013-03-03 11:18:00
6:46 AM,24.8,15.8,69,29.99,10.0,NW,6.9,-,0.00,,Overcast,320,2013-03-03 11:46:00
6:53 AM,24.1,15.1,69,30.03,10.0,NW,8.1,-,0.00,,Overcast,320,2013-03-03 11:53:00
7:27 AM,24.8,15.8,69,30.00,7.0,NW,9.2,-,0.00,Snow,Light Snow,310,2013-03-03 12:27:00
7:53 AM,24.1,16.0,71,30.04,7.0,WNW,8.1,-,0.00,Snow,Light Snow,290,2013-03-03 12:53:00
8:12 AM,24.8,15.8,69,30.00,4.0,WNW,9.2,-,0.00,Snow,Light Snow,300,2013-03-03 13:12:00
8:51 AM,24.8,15.8,69,30.01,2.0,WNW,9.2,-,0.00,Snow,Light Snow,300,2013-03-03 13:51:00
8:53 AM,24.1,16.0,71,30.04,2.0,WNW,11.5,-,0.00,Snow,Light Snow,300,2013-03-03 13:53:00
9:05 AM,24.8,15.8,69,30.01,4.0,NW,6.9,-,0.00,Snow,Light Snow,310,2013-03-03 14:05:00
9:53 AM,24.1,17.1,75,30.04,4.0,WNW,8.1,-,0.00,Snow,Light Snow,290,2013-03-03 14:53:00
10:01 AM,24.8,15.8,69,30.01,4.0,WNW,8.1,-,0.00,Snow,Light Snow,290,2013-03-03 15:01:00
10:53 AM,25.0,16.0,69,30.04,10.0,West,6.9,-,0.00,,Overcast,270,2013-03-03 15:53:00
11:05 AM,24.8,15.8,69,30.00,10.0,WNW,8.1,-,N/A,,Overcast,300,2013-03-03 16:05:00
11:53 AM,26.1,16.0,66,30.04,9.0,NW,9.2,-,0.00,,Overcast,310,2013-03-03 16:53:00
12:53 PM,28.0,14.0,56,30.02,10.0,WNW,9.2,-,0.00,,Overcast,290,2013-03-03 17:53:00
1:53 PM,27.0,14.0,58,30.01,10.0,WNW,12.7,17.3,N/A,,Overcast,290,2013-03-03 18:53:00
2:53 PM,28.0,15.1,58,30.00,10.0,NW,11.5,-,N/A,,Overcast,310,2013-03-03 19:53:00
3:53 PM,28.0,16.0,61,30.01,10.0,West,8.1,-,N/A,,Overcast,260,2013-03-03 20:53:00
4:53 PM,27.0,15.1,61,30.02,10.0,West,5.8,-,N/A,,Overcast,280,2013-03-03 21:53:00
5:53 PM,27.0,15.1,61,30.03,10.0,NW,9.2,-,N/A,,Overcast,310,2013-03-03 22:53:00
6:49 PM,26.6,15.8,64,30.01,7.0,WNW,9.2,-,0.00,Snow,Light Snow,300,2013-03-03 23:49:00
6:53 PM,26.1,17.1,69,30.05,6.0,WNW,9.2,-,0.00,Snow,Light Snow,300,2013-03-03 23:53:00
7:53 PM,26.1,17.1,69,30.06,10.0,West,4.6,-,0.00,,Overcast,280,2013-03-04 00:53:00
8:53 PM,25.0,16.0,69,30.07,10.0,West,5.8,-,N/A,,Overcast,280,2013-03-04 01:53:00
9:53 PM,25.0,12.0,58,30.08,10.0,NW,6.9,-,N/A,,Overcast,310,2013-03-04 02:53:00
10:53 PM,25.0,12.0,58,30.07,10.0,West,5.8,-,N/A,,Overcast,280,2013-03-04 03:53:00
11:53 PM,25.0,12.9,60,30.07,10.0,Calm,Calm,-,N/A,,Overcast,0,2013-03-04 04:53:00